Starlink 11147

operational
NORAD ID: 60301 Int'l Des: 2024-133 Owner: SPXS Country: US Constellation: starlink
LEOCIRCULAR

关于 Starlink 11147

正在加载描述...

实时位置

正在加载3D地球...

即将过境

高度历史

Altitude vs Time

uPlot chart will show altitude changes over time

两行轨道根数

1 60301U 24133A 25258.55122581 -.00002509 00000-0 -15843-4 0 9997
2 60301 53.1598 289.8144 0001242 73.9590 286.1565 15.69730041 66226
Epoch: Sep 15, 2025 • Age: 16 hours

当前状态

高度 364.7 km
速度 7.70 km/s
星下点 49.64°N, 24.58°W
发射日期 Jul 28, 2024
运行时间 1.1 years
类型 internet

技术详情

分类 Payload
质量 960.00 kg
干质量 910.00 kg
总质量 960.00 kg
长度 0.30 m
直径 4.10 m
跨度 29.00 m
形状 Box + pan
制造商 SPXS
平台类型 Starlink V2MD
阶段状态 In Orbit
所有者/国家 SPXS/US

大型星座

Loading constellations...